Temperature
22 22 22 22 25 25 23 23 23 23 23 22 22 22 23 22 22 21 18 17 17 17 17 17 17 17 17 17 17 17 17 17 17 17 17 18 18 18 18 18 18 18 18 18 18 18 18 18 18
22 22 22 23 25 24 22 23 23 23 22 21 22 22 22 21 20 19 18 17 17 17 17 17 17 17 17 17 17 17 17 17 17 17 17 17 17 17 17 17 17 17 17 17 17 17 18 17 17
22 22 23 25 24 24 23 23 23 22 21 22 22 22 22 20 19 18 17 17 17 17 17 17 17 17 17 17 17 17 17 17 17 17 17 17 17 17 17 17 17 17 17 17 17 17 17 17 17
21 22 24 24 23 23 23 23 23 23 22 22 22 22 20 19 18 18 17 17 17 17 17 17 17 17 17 17 17 17 17 17 17 17 17 17 17 17 17 17 17 17 17 17 17 17 17 17 17
22 24 24 23 23 23 23 23 23 23 23 22 22 22 20 18 18 18 17 17 17 17 17 17 17 17 17 17 17 17 17 17 17 17 17 17 17 17 17 17 17 17 17 17 17 17 17 17 17
23 24 24 23 22 23 23 22 23 23 23 22 22 22 20 18 18 18 17 17 17 17 17 17 17 17 17 17 17 17 17 17 17 17 17 17 17 17 17 17 17 17 17 17 17 17 17 17 17
24 24 23 23 22 23 23 22 23 23 23 22 22 22 20 18 18 17 17 17 17 17 17 17 17 17 17 17 17 17 17 17 17 17 17 17 17 17 17 17 17 17 17 17 17 17 17 17 17
22 24 23 23 23 22 23 22 22 22 22 21 21 22 21 19 18 18 17 17 17 17 17 17 17 17 17 17 17 17 17 17 17 17 17 17 17 17 17 17 17 16 17 17 16 16 16 16 16
22 24 23 23 23 23 23 23 22 22 22 21 21 21 20 18 18 18 18 18 17 17 17 17 17 17 17 17 17 17 17 17 17 17 17 16 16 16 16 16 16 16 16 16 16 16 16 16 16
24 24 23 23 24 23 23 23 22 22 22 22 21 19 19 18 18 18 18 18 18 18 17 17 17 17 17 16 16 16 16 16 16 16 16 16 16 16 16 16 16 16 16 16 16 16 16 16 16
24 23 23 23 23 23 22 22 22 23 23 22 21 20 19 19 19 19 19 18 18 18 17 17 17 17 17 16 16 16 16 16 16 16 16 16 16 16 16 16 16 16 16 16 16 16 15 15 15
23 23 23 23 22 22 22 22 22 22 22 21 21 20 19 19 19 19 19 18 18 18 17 17 17 17 17 16 16 16 16 16 16 16 16 16 16 16 16 16 16 16 16 16 15 15 15 15 15
23 23 22 22 21 22 22 22 22 22 21 21 20 20 19 19 19 19 19 18 18 18 17 17 17 17 17 16 16 16 16 16 16 16 16 16 16 16 16 16 16 15 15 15 15 15 15 15 15
23 22 22 22 22 22 22 22 22 22 21 20 20 20 20 19 19 19 19 18 18 18 18 17 17 17 17 16 16 16 16 16 16 16 16 16 16 16 16 15 15 15 15 15 15 15 15 15 15
22 23 23 22 22 22 23 23 23 22 21 21 20 20 19 19 19 19 19 18 18 18 18 17 17 17 17 16 16 16 16 16 16 16 16 16 16 16 15 15 15 15 15 15 15 15 15 15 15
23 23 22 22 22 22 23 22 23 21 21 21 21 20 20 19 19 19 18 18 18 18 18 17 17 17 16 16 16 16 16 16 16 16 16 16 16 16 15 15 15 15 15 15 15 15 15 14 14
23 23 22 22 22 23 23 22 23 21 21 21 21 21 20 20 19 19 18 18 18 18 17 17 17 17 16 16 16 16 16 16 16 16 16 15 15 15 15 15 15 15 15 15 15 15 15 14 14
22 22 22 22 23 22 22 23 23 22 21 22 21 21 20 20 19 19 18 18 18 18 18 17 17 17 17 16 16 16 16 16 16 16 15 15 15 15 15 15 15 15 15 15 15 14 14 14 14
23 22 22 22 22 22 22 23 23 22 21 21 21 21 21 20 19 19 18 18 18 18 17 17 17 17 16 16 16 16 16 16 16 16 16 15 15 15 15 15 15 15 15 15 15 14 14 14 14
22 22 22 22 22 22 22 22 23 22 21 21 21 21 21 20 19 19 18 18 18 18 17 17 17 17 16 16 16 16 16 16 16 15 15 15 15 15 15 15 15 15 15 14 14 14 14 14 14
22 22 22 22 22 22 22 22 23 22 21 20 20 20 20 20 19 19 18 18 18 17 17 17 17 17 16 16 16 16 16 16 15 15 15 15 15 15 15 15 15 15 14 14 14 14 14 14 14
22 22 22 22 22 22 22 22 23 22 22 21 20 20 19 19 19 19 18 18 18 17 17 17 17 17 16 16 16 16 16 15 15 15 15 15 15 15 15 15 14 14 14 14 14 14 13 13 13
22 22 22 22 22 22 22 22 23 22 22 22 21 19 19 19 18 18 18 18 17 17 17 17 17 17 16 16 16 16 15 15 15 15 15 15 15 15 14 14 14 14 14 14 14 14 13 13 13
21 22 21 22 22 21 22 22 22 22 22 21 21 19 19 18 18 18 18 17 17 17 17 17 17 16 16 16 16 16 15 15 15 15 15 15 14 14 14 14 14 14 14 14 14 14 13 13 13
22 22 21 21 21 21 21 21 22 22 21 21 20 19 18 18 18 17 17 17 17 17 17 17 16 16 16 16 16 15 15 15 15 15 15 14 14 14 14 14 14 14 14 14 14 13 13 13 13
22 22 21 20 21 21 21 21 22 21 20 19 19 18 18 18 17 17 17 16 16 16 16 16 16 16 16 16 15 15 15 15 15 14 14 14 14 14 14 14 14 14 14 14 13 13 13 13 13
21 21 21 21 21 21 22 22 21 20 20 19 19 18 18 17 16 16 16 16 16 16 16 16 16 16 15 15 15 15 15 15 14 14 14 14 14 14 14 14 14 14 13 13 13 13 13 13 13
21 21 21 20 20 20 21 21 21 20 20 20 19 18 17 16 16 16 15 15 15 15 15 15 15 15 15 15 15 14 14 14 14 14 14 14 14 13 13 14 13 13 13 13 13 13 13 13 13
20 20 20 20 20 20 20 21 21 20 20 19 19 18 17 16 16 15 15 15 15 15 15 15 15 14 14 14 14 14 14 14 14 14 13 13 13 13 13 13 13 13 13 13 13 13 13 12 12
20 20 20 19 20 20 20 20 20 20 19 18 18 17 16 15 15 15 14 14 14 14 14 14 14 14 14 14 14 13 14 13 13 13 13 13 13 13 13 13 13 13 13 12 12 12 12 12 12
Wind_Speed
2 1 1 1 1 5 8 6 5 5 5 6 6 6 6 7 6 5 3 3 4 4 5 6 6 7 7 8 7 7 7 8 8 9 9 9 9 10 10 10 10 10 10 10 11 12 12 12 13
1 1 1 1 2 7 7 6 7 7 6 5 5 6 7 7 6 5 4 3 3 5 5 7 7 7 8 8 9 8 8 9 9 9 9 9 9 10 9 10 10 10 10 10 11 12 12 11 12
1 1 2 2 4 6 7 6 7 7 5 3 4 5 5 6 5 4 4 4 4 5 6 8 7 8 9 9 10 11 11 10 10 10 10 10 10 10 10 10 10 10 10 11 11 11 11 11 12
1 1 2 5 10 8 7 6 6 6 5 4 4 6 6 6 4 5 5 4 5 6 7 8 7 8 9 9 10 11 11 11 11 11 11 11 11 11 11 10 10 11 11 11 11 11 11 11 11
1 2 5 8 9 7 6 5 5 5 5 5 5 7 7 5 6 6 5 4 5 6 6 8 8 8 9 9 10 11 11 12 11 12 12 12 12 12 12 11 11 11 11 10 11 11 10 11 11
1 2 5 8 8 7 6 5 6 7 8 7 6 7 6 5 5 6 5 4 5 5 6 7 8 8 9 9 10 11 11 11 11 12 12 12 12 13 13 12 11 11 11 11 11 10 10 10 11
3 3 6 8 8 7 5 4 5 6 6 5 4 5 6 5 5 5 5 4 5 5 5 5 6 7 8 9 10 10 10 11 11 11 11 12 12 12 12 13 13 11 11 11 11 11 11 11 11
2 4 7 7 7 6 5 4 4 3 5 4 2 4 5 6 5 5 5 4 4 4 4 5 5 6 6 8 9 9 9 10 10 10 10 9 10 10 10 11 12 12 12 12 12 12 12 12 11
1 4 6 6 6 6 5 4 3 2 5 4 3 4 5 8 7 6 5 4 4 4 4 4 5 5 5 6 7 7 8 8 7 9 8 5 7 8 9 12 11 11 12 12 12 12 11 10 10
2 4 6 4 5 6 5 3 3 4 4 4 5 5 7 8 7 6 5 4 4 4 4 4 4 5 5 5 5 5 5 6 6 6 6 6 7 7 8 10 10 10 10 10 11 9 7 5 7
3 5 5 5 4 5 5 3 2 3 3 2 3 6 8 7 6 5 4 4 4 4 4 3 3 4 4 4 4 4 4 4 5 5 6 6 6 6 7 6 7 7 7 8 7 6 8 8 7
5 6 5 5 4 4 3 3 3 2 2 2 4 7 8 7 6 5 4 3 3 4 3 3 2 3 3 4 3 3 3 3 4 4 6 5 4 4 5 5 5 5 5 6 6 6 8 8 8
6 5 4 4 4 3 3 3 2 1 1 3 5 7 7 7 6 5 3 3 3 3 3 3 2 2 3 3 3 3 3 3 4 4 4 5 4 4 5 5 5 5 5 5 5 6 7 7 7
5 5 4 4 4 3 3 2 2 1 2 4 6 6 7 6 5 4 4 3 3 3 3 3 2 2 3 3 3 3 3 4 4 4 4 5 4 4 4 4 4 4 4 4 4 5 5 5 6
5 5 4 3 2 2 3 3 2 2 3 4 5 5 5 6 5 4 3 3 2 2 3 3 2 3 3 3 3 3 3 3 3 3 4 4 4 3 3 3 3 3 3 4 4 5 4 5 5
4 3 3 2 1 1 4 2 2 2 4 4 4 5 5 5 5 4 3 2 2 2 3 3 3 3 3 3 3 3 3 3 3 3 2 3 3 3 3 2 2 3 2 2 3 3 3 3 4
3 3 3 2 1 2 3 3 1 3 4 5 5 5 5 5 5 4 3 3 3 3 3 4 4 3 3 3 3 3 3 3 3 3 2 2 2 2 3 2 1 2 2 2 2 2 2 3 3
3 2 1 1 1 3 4 4 3 4 5 5 5 5 5 5 5 4 4 3 3 3 3 4 4 4 4 3 3 3 2 2 2 1 1 2 1 2 2 1 1 1 1 1 1 2 2 2 2
3 3 2 1 1 3 5 5 4 4 5 6 6 6 6 5 4 4 4 4 4 4 4 4 4 4 4 3 2 2 2 2 1 1 1 1 1 1 2 1 1 1 1 1 1 1 1 1 1
4 3 3 2 1 4 4 5 4 3 4 5 6 6 6 5 4 4 4 4 5 4 4 4 4 4 4 2 2 2 2 1 1 1 1 1 1 1 1 1 1 1 1 1 1 1 0 1 0
4 3 3 3 3 4 5 4 3 2 3 3 4 5 5 5 5 5 5 5 5 4 4 3 4 3 3 3 2 2 2 1 2 1 1 1 1 1 1 1 1 1 1 1 1 1 1 1 1
3 2 3 4 6 3 4 4 2 2 2 3 3 4 5 4 5 5 5 5 5 5 4 4 4 3 3 3 3 3 2 2 2 1 1 1 1 1 1 1 1 1 1 1 2 1 2 2 1
2 1 3 5 6 6 5 5 2 1 2 1 1 2 3 4 5 5 5 5 4 4 4 3 3 4 3 3 3 4 3 2 1 1 2 2 1 1 1 2 2 2 2 2 2 2 2 2 2
2 2 3 5 6 6 4 5 3 1 2 2 1 1 2 3 4 5 4 4 4 3 3 3 3 3 3 4 4 4 4 3 2 2 2 2 1 2 2 2 2 2 2 2 2 2 3 2 2
4 5 4 4 5 3 1 4 2 2 2 3 2 2 1 1 3 4 4 4 4 4 4 4 4 3 3 3 4 4 4 4 3 3 2 2 2 2 2 2 3 3 3 3 2 3 3 3 3
5 6 5 4 4 3 3 5 1 2 2 2 1 1 1 1 1 2 3 4 4 4 4 4 4 4 3 3 3 3 4 3 3 3 3 3 2 3 3 3 3 3 3 3 3 3 3 3 4
4 4 4 6 6 6 5 3 2 0 0 1 1 1 2 2 1 1 2 2 3 4 4 4 4 4 3 3 3 3 3 3 3 3 3 3 3 3 3 3 3 3 3 3 3 3 3 3 4
2 2 4 5 5 6 5 6 3 2 2 1 0 1 2 2 1 1 0 1 2 3 3 3 4 4 3 2 3 2 3 3 3 3 3 3 3 3 3 3 3 3 3 3 3 4 3 4 4
3 4 4 5 5 6 6 3 0 2 2 2 1 1 1 2 1 1 1 1 1 2 2 3 4 3 3 3 3 2 3 3 4 4 4 4 3 3 4 4 4 4 4 4 3 4 4 5 4
4 4 5 6 6 6 7 4 2 0 1 2 2 1 1 1 1 2 1 2 1 1 2 3 3 3 3 3 3 3 3 3 4 4 4 4 4 4 4 4 5 5 4 4 4 5 4 5 5
Wind_Direction
207 269 263 252 124 93 85 80 81 84 72 60 61 66 68 51 37 65 70 59 50 64 64 74 58 51 55 61 61 63 74 79 78 79 76 77 77 77 75 72 69 69 67 67 68 69 69 68 69
343 307 270 20 111 108 91 89 87 75 86 91 76 72 73 66 57 83 92 71 68 69 66 62 60 55 58 60 58 63 78 81 77 78 76 75 75 76 76 74 70 67 67 68 69 71 69 68 69
57 347 23 70 86 91 104 101 97 94 92 87 85 66 59 69 71 85 86 97 88 75 70 70 63 62 63 62 63 68 76 77 77 77 76 75 75 74 74 74 71 69 67 67 68 70 69 68 69
264 104 89 97 94 81 94 106 113 112 95 78 94 89 82 65 72 88 103 104 93 84 78 77 66 67 67 67 72 74 74 74 74 76 77 76 74 72 73 73 72 70 68 66 65 67 68 69 70
49 86 114 107 97 94 91 98 114 104 96 89 89 93 92 78 84 101 109 100 92 85 79 82 73 69 71 73 75 76 76 75 74 75 76 77 77 73 72 73 73 71 69 67 68 65 67 70 72
94 115 125 116 108 102 100 106 108 98 99 98 96 98 93 96 102 104 106 100 91 85 81 87 92 80 73 73 74 76 77 76 76 76 75 75 75 72 70 71 71 72 71 69 68 67 69 71 72
96 105 115 121 120 113 102 107 107 101 101 94 97 98 112 114 108 115 113 105 95 87 82 83 93 97 94 82 77 78 78 78 78 77 77 76 75 74 72 69 65 68 69 68 65 65 68 67 68
83 121 122 126 129 116 116 116 99 96 98 98 107 91 114 136 136 130 118 107 96 88 82 83 86 88 95 95 86 81 80 80 81 80 78 82 86 84 80 74 67 64 65 64 64 65 67 66 67
125 129 127 128 133 121 126 126 111 106 116 113 90 73 100 133 145 139 126 113 98 90 87 90 88 84 86 87 96 97 96 91 100 96 93 89 81 79 81 71 70 68 67 65 64 65 67 73 78
105 115 107 110 121 125 126 115 125 140 131 119 113 106 122 141 148 142 134 121 110 104 98 96 95 91 92 91 97 91 91 93 88 89 90 79 77 72 74 83 76 73 73 75 69 69 76 66 74
93 97 105 115 118 127 128 116 122 140 129 129 137 139 145 149 148 144 138 124 115 113 107 100 102 101 99 102 98 93 89 91 88 87 90 85 83 82 77 79 82 78 76 70 75 71 58 60 61
104 93 102 114 123 132 131 132 128 102 68 81 134 143 151 157 157 158 149 134 131 123 119 113 107 110 106 106 104 105 103 100 91 88 90 87 79 75 73 74 70 68 66 61 59 60 60 60 62
110 104 99 109 119 125 135 141 134 103 98 127 138 150 156 162 161 162 156 142 137 134 136 129 132 118 116 104 106 114 105 96 95 87 87 88 85 78 75 72 68 66 66 67 58 58 59 59 59
109 115 114 121 126 140 148 151 162 137 133 142 150 158 163 165 169 163 161 161 153 145 134 131 148 140 134 120 121 109 106 107 100 90 81 86 83 81 80 77 66 62 63 62 64 62 57 60 57
131 127 124 125 149 165 191 186 189 158 157 157 163 164 168 175 177 182 174 172 168 161 150 140 148 152 145 129 113 105 105 107 100 91 76 81 74 76 79 73 72 63 64 66 63 62 58 61 62
159 165 149 117 158 188 225 210 143 164 188 187 181 171 173 180 189 188 186 191 181 177 159 147 152 153 148 139 128 116 113 105 100 91 73 77 81 79 72 71 70 71 74 67 66 56 56 62 56
183 167 142 136 181 217 231 250 179 189 205 208 200 192 184 182 186 188 195 194 183 180 169 158 159 158 148 145 139 129 121 108 94 87 73 62 72 75 77 70 68 75 71 68 75 68 56 61 60
178 175 188 202 194 244 249 257 247 219 222 224 210 202 193 195 191 188 196 195 182 179 175 164 161 167 154 154 153 144 141 130 106 99 87 63 59 80 89 95 98 100 88 66 90 93 75 62 59
203 214 235 266 278 271 268 271 267 244 227 228 220 209 205 203 193 183 189 189 184 182 184 176 175 172 166 167 177 180 178 180 158 133 103 107 96 90 98 113 109 114 96 65 82 93 101 85 71
204 219 237 252 276 274 283 282 275 251 230 230 228 217 211 204 194 181 188 191 193 187 193 187 186 179 175 185 193 196 196 204 168 155 140 128 142 132 116 159 154 137 121 108 91 103 230 93 82
218 239 260 279 286 247 273 262 230 203 210 212 226 231 218 210 201 186 189 193 192 193 189 190 187 181 182 183 184 178 171 202 195 194 183 185 177 192 206 220 221 198 204 183 193 195 230 238 217
244 274 264 260 264 268 267 281 256 228 211 206 217 226 221 215 208 198 192 191 192 195 193 191 182 179 184 181 193 203 215 230 244 233 201 200 192 205 232 238 250 234 232 211 219 221 235 238 229
281 286 253 256 264 265 252 262 249 201 226 233 218 220 222 217 213 207 201 198 194 192 189 187 187 184 187 196 206 232 243 245 245 252 235 237 217 221 239 255 251 244 237 240 230 225 236 231 245
195 212 218 230 246 250 254 261 255 218 276 295 306 243 218 213 211 209 205 197 190 183 183 188 195 195 197 207 214 228 240 244 245 251 259 247 226 228 233 247 250 252 245 240 238 232 231 241 241
228 251 247 231 230 245 212 257 255 39 359 323 323 332 319 212 202 197 199 197 192 184 184 187 191 196 199 213 225 233 240 244 244 247 249 259 246 229 234 236 250 252 251 243 233 231 237 234 232
231 254 264 269 267 269 238 244 227 44 353 332 333 16 46 84 199 197 197 200 197 191 192 191 193 200 202 212 234 241 233 238 246 244 247 246 259 254 241 233 244 250 246 238 229 237 238 241 236
223 237 280 277 275 267 238 232 232 136 333 354 26 55 53 51 81 204 206 202 201 200 203 200 195 199 206 217 231 244 239 236 240 243 246 246 255 267 256 238 240 241 240 240 233 239 237 241 242
278 213 231 251 262 258 249 245 241 213 252 262 336 25 34 45 59 70 109 202 208 207 211 207 202 202 204 219 231 240 248 242 239 241 242 248 252 252 257 244 238 236 236 237 238 246 248 245 243
188 205 237 254 261 269 269 259 38 262 242 248 277 355 20 29 46 56 82 141 173 191 202 202 206 213 222 229 236 239 241 249 241 239 244 250 254 247 252 252 242 237 237 236 233 241 246 249 250
244 236 230 253 256 254 271 276 85 324 288 283 292 326 4 11 44 53 73 98 122 171 215 216 215 222 231 236 239 240 244 248 247 244 245 248 251 252 252 252 245 239 239 240 240 241 244 250 256
Height
1509 1508 1508 1510 1509 1511 1519 1521 1518 1520 1520 1523 1523 1522 1522 1524 1525 1533 1534 1531 1531 1530 1529 1528 1526 1525 1524 1523 1522 1520 1520 1520 1521 1521 1521 1521 1521 1521 1520 1520 1519 1519 1518 1517 1516 1515 1514 1513 1512
1510 1509 1511 1510 1509 1518 1525 1521 1521 1522 1524 1525 1525 1525 1525 1527 1530 1532 1532 1532 1532 1531 1530 1529 1528 1527 1526 1525 1523 1520 1518 1520 1521 1522 1522 1522 1522 1522 1521 1521 1521 1520 1520 1519 1518 1517 1516 1515 1515
1510 1510 1513 1510 1513 1519 1525 1522 1523 1525 1526 1526 1526 1527 1528 1531 1533 1534 1534 1533 1533 1532 1532 1530 1529 1528 1527 1526 1524 1522 1521 1522 1523 1523 1524 1523 1523 1523 1523 1523 1522 1522 1521 1521 1520 1519 1518 1518 1517
1512 1514 1514 1514 1520 1521 1521 1522 1524 1525 1527 1527 1527 1528 1531 1534 1535 1535 1534 1534 1534 1534 1533 1532 1531 1530 1529 1528 1527 1526 1525 1525 1525 1525 1525 1525 1525 1525 1524 1524 1524 1523 1523 1522 1521 1521 1520 1520 1519
1513 1514 1514 1519 1522 1523 1523 1525 1525 1525 1526 1528 1528 1530 1533 1536 1535 1536 1535 1536 1536 1536 1535 1534 1532 1531 1531 1530 1529 1529 1528 1528 1527 1527 1527 1527 1527 1526 1526 1525 1525 1525 1524 1524 1523 1522 1522 1522 1521
1515 1513 1517 1523 1525 1524 1525 1527 1526 1526 1528 1530 1531 1531 1535 1537 1537 1537 1537 1537 1537 1537 1536 1535 1534 1533 1532 1532 1531 1531 1530 1530 1530 1529 1529 1529 1529 1528 1528 1527 1527 1527 1526 1526 1525 1524 1524 1523 1523
1517 1515 1519 1522 1526 1526 1527 1528 1528 1528 1529 1531 1532 1532 1536 1537 1538 1538 1538 1538 1538 1538 1537 1537 1536 1535 1534 1534 1533 1533 1533 1532 1532 1531 1531 1531 1531 1530 1530 1530 1529 1528 1528 1527 1527 1526 1525 1525 1524
1518 1517 1521 1522 1526 1527 1529 1529 1530 1530 1531 1534 1534 1533 1536 1538 1538 1538 1539 1539 1539 1539 1538 1538 1538 1537 1537 1536 1535 1535 1535 1534 1534 1534 1533 1533 1533 1533 1532 1532 1531 1530 1530 1529 1528 1527 1527 1526 1526
1519 1519 1522 1524 1526 1527 1529 1530 1531 1532 1533 1534 1535 1536 1537 1538 1538 1539 1540 1540 1540 1540 1539 1539 1539 1539 1539 1538 1537 1537 1537 1536 1536 1536 1535 1535 1536 1535 1535 1534 1533 1532 1531 1531 1530 1530 1529 1529 1528
1520 1520 1523 1524 1525 1527 1529 1530 1531 1532 1532 1534 1536 1537 1537 1538 1539 1540 1540 1541 1541 1541 1541 1540 1540 1540 1540 1539 1539 1539 1539 1538 1538 1538 1538 1538 1538 1537 1536 1535 1535 1535 1534 1533 1532 1532 1531 1531 1532
1521 1522 1525 1527 1528 1529 1530 1531 1532 1531 1532 1534 1535 1537 1538 1539 1540 1540 1541 1541 1542 1542 1541 1541 1541 1541 1541 1540 1540 1540 1540 1539 1539 1540 1540 1540 1539 1539 1538 1538 1537 1537 1536 1536 1535 1535 1535 1534 1533
1523 1525 1527 1528 1530 1530 1531 1532 1532 1533 1534 1535 1536 1537 1538 1539 1540 1541 1541 1542 1542 1542 1542 1542 1542 1542 1542 1541 1541 1540 1540 1540 1540 1541 1541 1541 1541 1541 1540 1540 1539 1539 1539 1538 1538 1537 1537 1537 1536
1524 1527 1529 1530 1531 1531 1532 1532 1533 1534 1535 1535 1536 1537 1538 1539 1540 1541 1542 1542 1542 1542 1542 1542 1542 1542 1542 1541 1541 1541 1541 1541 1542 1541 1542 1542 1542 1542 1542 1542 1541 1541 1540 1540 1539 1539 1539 1538 1538
1527 1528 1529 1530 1531 1532 1532 1532 1533 1534 1535 1535 1536 1537 1538 1539 1540 1541 1542 1542 1542 1542 1542 1542 1542 1542 1542 1542 1542 1541 1542 1541 1542 1543 1543 1543 1543 1543 1543 1543 1542 1542 1542 1541 1541 1541 1540 1540 1539
1528 1528 1529 1530 1531 1532 1532 1531 1532 1533 1535 1535 1536 1537 1538 1539 1540 1541 1542 1542 1542 1542 1543 1543 1543 1543 1543 1543 1542 1542 1542 1543 1543 1543 1544 1544 1544 1545 1544 1544 1544 1543 1543 1543 1542 1542 1541 1541 1540
1526 1527 1531 1531 1531 1532 1533 1533 1531 1533 1534 1534 1535 1536 1538 1539 1540 1541 1541 1542 1542 1542 1543 1543 1542 1543 1543 1543 1543 1543 1543 1543 1544 1544 1545 1545 1545 1545 1545 1544 1544 1544 1544 1543 1543 1542 1542 1541 1541
1526 1529 1531 1531 1530 1530 1530 1531 1530 1532 1533 1533 1534 1535 1536 1538 1539 1540 1541 1541 1541 1542 1542 1542 1543 1543 1543 1544 1544 1544 1544 1544 1545 1545 1545 1546 1546 1546 1545 1545 1544 1544 1544 1544 1543 1543 1542 1542 1541
1530 1529 1531 1531 1529 1530 1529 1528 1528 1531 1532 1531 1532 1534 1535 1536 1538 1539 1540 1540 1541 1541 1542 1542 1542 1543 1544 1544 1545 1545 1545 1545 1545 1545 1545 1545 1546 1546 1545 1545 1545 1544 1544 1544 1543 1543 1542 1542 1542
1525 1528 1530 1529 1529 1529 1527 1526 1526 1528 1530 1530 1531 1532 1534 1535 1537 1538 1539 1539 1540 1541 1541 1542 1542 1543 1543 1544 1544 1545 1545 1545 1545 1545 1545 1545 1545 1545 1545 1545 1545 1544 1544 1544 1543 1543 1543 1542 1542
1526 1529 1529 1528 1528 1528 1526 1525 1523 1526 1527 1529 1529 1530 1532 1533 1536 1537 1537 1538 1539 1540 1541 1542 1542 1543 1543 1543 1544 1544 1545 1545 1545 1545 1545 1545 1545 1545 1545 1545 1544 1544 1543 1543 1543 1542 1542 1542 1542
1526 1528 1528 1530 1528 1526 1527 1525 1522 1523 1526 1528 1529 1529 1530 1532 1533 1535 1536 1537 1538 1539 1540 1541 1541 1542 1542 1543 1543 1544 1544 1544 1544 1544 1544 1544 1544 1544 1544 1544 1543 1543 1543 1542 1542 1541 1541 1541 1541
1528 1525 1527 1528 1528 1527 1527 1530 1521 1520 1522 1525 1527 1528 1528 1530 1531 1533 1534 1535 1536 1538 1539 1540 1540 1541 1542 1542 1542 1543 1543 1543 1543 1543 1543 1543 1543 1543 1543 1543 1542 1542 1542 1541 1541 1541 1541 1540 1541
1526 1527 1526 1526 1526 1526 1524 1526 1521 1518 1521 1522 1524 1526 1527 1528 1529 1531 1532 1533 1535 1536 1537 1538 1539 1540 1540 1541 1541 1542 1542 1542 1542 1542 1542 1542 1542 1541 1541 1541 1541 1541 1540 1540 1540 1539 1539 1539 1539
1527 1527 1526 1525 1524 1530 1525 1526 1524 1517 1520 1521 1523 1524 1525 1526 1527 1529 1530 1532 1533 1534 1535 1536 1537 1538 1538 1539 1540 1540 1540 1540 1540 1540 1540 1540 1540 1539 1539 1539 1539 1539 1539 1538 1538 1538 1537 1537 1538
1526 1527 1532 1532 1531 1528 1523 1525 1522 1518 1520 1522 1523 1524 1524 1524 1525 1526 1528 1529 1530 1531 1532 1533 1535 1535 1536 1537 1538 1538 1538 1538 1538 1538 1538 1538 1538 1538 1537 1537 1537 1537 1537 1536 1536 1536 1536 1535 1535
1524 1525 1534 1539 1534 1526 1523 1523 1518 1520 1522 1523 1523 1523 1523 1524 1524 1525 1526 1527 1528 1529 1530 1531 1532 1533 1534 1534 1535 1536 1536 1536 1536 1536 1536 1536 1536 1536 1535 1535 1535 1535 1535 1534 1534 1534 1534 1534 1534
1524 1524 1524 1528 1528 1529 1521 1518 1517 1519 1520 1521 1522 1523 1523 1523 1523 1523 1524 1524 1525 1526 1527 1528 1529 1530 1531 1531 1532 1533 1533 1533 1533 1533 1533 1533 1533 1533 1533 1533 1533 1533 1532 1532 1532 1532 1532 1531 1531
1524 1523 1527 1529 1534 1532 1523 1519 1517 1517 1518 1520 1521 1521 1522 1522 1522 1522 1522 1522 1523 1524 1525 1526 1527 1528 1528 1529 1529 1530 1530 1530 1530 1530 1530 1530 1530 1530 1530 1530 1530 1530 1530 1530 1530 1529 1529 1529 1529
1526 1527 1525 1525 1526 1530 1529 1521 1513 1515 1517 1519 1520 1521 1521 1521 1521 1521 1521 1521 1521 1522 1522 1523 1524 1525 1526 1526 1526 1527 1527 1527 1527 1527 1527 1527 1527 1527 1527 1527 1527 1527 1527 1527 1527 1526 1526 1526 1526
1523 1522 1523 1529 1527 1525 1525 1522 1514 1516 1518 1519 1520 1520 1521 1520 1520 1520 1519 1519 1519 1520 1520 1521 1521 1522 1522 1523 1523 1523 1524 1524 1524 1524 1524 1524 1524 1524 1523 1523 1523 1523 1523 1523 1523 1523 1523 1523 1523